{"data":{"norad_id":53540,"intl_designator":"2022-101P","name":"STARLINK-4486","alt_names":[],"object_type":"PAYLOAD","status":"ACTIVE","operator":null,"country":"US","launch_date":"2022-08-19","launch_site_code":"AFETR","launch_vehicle":null,"mission":null,"orbit_class":"UNKNOWN","rcs_meters":null,"size_class":null,"mass_kg":null,"dimensions":null,"purposes":["comms"],"wikipedia_slug":null,"has_3d_model":false,"image_url":null,"decayed_at":null,"tle_current":{"epoch":"2026-05-25T02:41:23.907264Z","epoch_age_seconds":72212,"freshness":"FRESH","line1":"1 53540U 22101P   26145.11208226  .00003141  00000+0  21521-3 0  9995","line2":"2 53540  53.2164  81.4012 0001482  89.3298 270.7864 15.08861035208528","mean_motion":15.08861035,"eccentricity":0.0001482,"inclination_deg":53.2164,"raan_deg":81.4012,"arg_perigee_deg":89.3298,"mean_anomaly_deg":270.7864,"bstar":0.00021521,"rev_number":20852,"period_min":95.43622418482,"perigee_km":538.65387378609,"apogee_km":540.70431447639,"semimajor_km":6917.8160941312,"source":"CELESTRAK","updated_at":"2026-05-25T13:38:17.441704Z"}}}